Location: Newark
(46.7000°N, 60.6000°W)
Time: 14:15:46
(UTC+00:00)

SR - All Passes

Search period start: 31 October 2020 00:00
Search period end: 10 November 2020 00:00
Orbit: 581 x 874 km, 66.7° (Epoch: 30 October)

Date Brightness Start Highest point End Pass type
(mag) Time Alt. Az. Time Alt. Az. Time Alt. Az.
31 Oct - 05:02:00 10° S 05:05:52 35° ESE 05:09:52 10° NE night (unlit)
31 Oct - 06:44:08 10° WSW 06:47:56 30° NW 06:51:54 10° NNE visible
31 Oct - 11:57:40 10° N 12:00:28 15° NNE 12:03:23 10° ENE daylight
31 Oct - 13:38:32 10° NNW 13:43:27 61° NE 13:48:47 10° SE daylight
31 Oct - 15:21:15 10° WNW 15:25:12 23° WSW 15:29:22 10° SSW daylight
01 Nov - 04:13:42 10° SSE 04:16:29 17° ESE 04:19:19 10° ENE night (unlit)
01 Nov - 05:53:49 10° SW 05:58:00 56° NW 06:02:24 10° NNE visible
01 Nov - 07:39:10 10° NW 07:41:06 13° NNW 07:43:05 10° N visible
01 Nov - 11:09:25 10° NNE 11:10:05 10° NNE 11:10:46 10° NNE daylight
01 Nov - 12:49:02 10° NNW 12:53:33 35° NE 12:58:25 10° ESE daylight
01 Nov - 14:30:56 10° NW 14:35:42 43° WSW 14:40:50 10° S daylight
02 Nov - 05:04:03 10° SSW 05:08:16 71° ESE 05:12:41 10° NE night (unlit)
02 Nov - 06:47:40 10° W 06:50:50 19° NW 06:54:06 10° N visible
02 Nov - 11:59:41 10° NNW 12:03:30 22° NE 12:07:33 10° E daylight
02 Nov - 13:41:02 10° NW 13:46:04 80° WSW 13:51:31 10° SSE daylight
02 Nov - 15:25:17 10° W 15:27:27 13° WSW 15:29:41 10° SW daylight
03 Nov - 04:14:55 10° S 04:18:44 33° ESE 04:22:41 10° NE night (unlit)
03 Nov - 05:56:52 10° WSW 06:00:44 32° NW 06:04:47 10° NNE visible
03 Nov - 11:10:33 10° N 11:13:16 15° NNE 11:16:05 10° ENE daylight
03 Nov - 12:51:23 10° NNW 12:56:17 58° NE 13:01:38 10° SE daylight
03 Nov - 14:33:59 10° WNW 14:38:05 24° WSW 14:42:26 10° SSW daylight
04 Nov - 03:26:45 10° SE 03:29:22 16° ESE 03:32:01 10° ENE night (unlit)
04 Nov - 05:06:37 10° SW 05:10:49 60° NW 05:15:15 10° NNE night (unlit)
04 Nov - 06:51:45 10° WNW 06:53:53 13° NNW 06:56:04 10° N visible
04 Nov - 10:22:43 10° NNE 10:22:52 10° NNE 10:23:01 10° NNE visible
04 Nov - 12:01:53 10° NNW 12:06:23 34° NE 12:11:14 10° ESE daylight
04 Nov - 13:43:44 10° NW 13:48:34 45° WSW 13:53:47 10° S daylight
05 Nov - 04:16:54 10° SSW 04:21:07 66° ESE 04:25:31 10° NE night (unlit)
05 Nov - 06:00:21 10° W 06:03:37 20° NW 06:07:01 10° N visible
05 Nov - 11:12:32 10° N 11:16:19 21° NE 11:20:18 10° E daylight
05 Nov - 12:53:52 10° NW 12:58:56 84° WSW 13:04:25 10° SSE daylight
05 Nov - 14:37:50 10° WNW 14:40:21 14° WSW 14:42:57 10° SW daylight
06 Nov - 03:27:51 10° S 03:31:35 31° ESE 03:35:28 10° NE night (unlit)
06 Nov - 05:09:37 10° WSW 05:13:32 34° NW 05:17:40 10° NNE night (unlit)
06 Nov - 10:23:26 10° N 10:26:03 14° NNE 10:28:47 10° ENE visible
06 Nov - 12:04:13 10° NNW 12:09:09 55° NE 12:14:29 10° SE daylight
06 Nov - 13:46:44 10° NW 13:50:58 26° WSW 13:55:27 10° SSW daylight
07 Nov - 02:39:49 10° SE 02:42:14 15° ESE 02:44:43 10° ENE night (unlit)
07 Nov - 04:19:25 10° SW 04:23:39 65° NW 04:28:08 10° NNE night (unlit)
07 Nov - 06:04:21 10° WNW 06:06:40 14° NNW 06:09:02 10° N visible
07 Nov - 11:14:44 10° NNW 11:19:13 32° NE 11:24:01 10° ESE daylight
07 Nov - 12:56:32 10° NW 13:01:27 48° WSW 13:06:44 10° S daylight
08 Nov - 03:29:46 10° SSW 03:33:57 61° ESE 03:38:22 10° NE night (unlit)
08 Nov - 05:13:03 10° W 05:16:25 21° NW 05:19:56 10° NNE night (unlit)
08 Nov - 10:25:24 10° N 10:29:07 21° NE 10:33:03 10° E visible
08 Nov - 12:06:41 10° NW 12:11:47 89° SW 12:17:18 10° SSE daylight
08 Nov - 13:50:26 10° WNW 13:53:15 15° WSW 13:56:10 10° SW daylight
09 Nov - 02:40:46 10° S 02:44:27 29° ESE 02:48:16 10° NE night (unlit)
09 Nov - 04:22:22 10° WSW 04:26:20 36° NW 04:30:33 10° NNE night (unlit)
09 Nov - 09:36:18 10° N 09:38:51 14° NNE 09:41:29 10° ENE visible
09 Nov - 11:17:03 10° NNW 11:21:59 52° NE 11:27:19 10° SE daylight
09 Nov - 12:59:29 10° NW 13:03:51 28° WSW 13:08:28 10° SSW daylight
